This is the latest recevied weather packets stored in our database for station/object SV9TNF-52. If no packets are shown the sender has not sent any weather packets the latest 10 day(s).
| Time | Temp. | Humidity | Pressure | Rain* | Wind** | Luminosity | Snow |
|---|---|---|---|---|---|---|---|
| 1788463762 | 23.33° C | 73% | 1018.3 hPa | 0 mm | 5.36 m/s, 175° | - | - |
| 1788463462 | 23.33° C | 73% | 1018.3 hPa | 0 mm | 3.13 m/s, 256° | - | - |
| 1788463162 | 23.33° C | 72% | 1018.3 hPa | 0 mm | 5.81 m/s, 228° | - | - |
| 1788462862 | 23.89° C | 72% | 1018.3 hPa | 0 mm | 4.92 m/s, 198° | - | - |
| 1788462562 | 23.89° C | 72% | 1018.3 hPa | 0 mm | 4.92 m/s, 221° | - | - |
| 1788462266 | 23.89° C | 72% | 1018.3 hPa | 0 mm | 5.81 m/s, 243° | - | - |
| 1788461961 | 23.89° C | 72% | 1018.3 hPa | 0 mm | 7.15 m/s, 176° | - | - |
| 1788461661 | 23.89° C | 72% | 1018.3 hPa | 0 mm | 5.81 m/s, 194° | - | - |
| 1788461361 | 23.89° C | 72% | 1018.3 hPa | 0 mm | 4.92 m/s, 229° | - | - |
| 1788461061 | 23.89° C | 72% | 1018.3 hPa | 0 mm | 6.26 m/s, 245° | - | - |
| 1788460761 | 23.89° C | 72% | 1018.3 hPa | 0 mm | 7.15 m/s, 200° | - | - |
| 1788460461 | 24.44° C | 71% | 1018 hPa | 0 mm | 5.81 m/s, 165° | - | - |
| 1788460161 | 24.44° C | 71% | 1018 hPa | 0 mm | 4.92 m/s, 207° | - | - |
| 1788459861 | 24.44° C | 71% | 1018 hPa | 0 mm | 1.79 m/s, 227° | - | - |
| 1788459561 | 24.44° C | 71% | 1018 hPa | 0 mm | 4.02 m/s, 236° | - | - |
| 1788459261 | 24.44° C | 70% | 1018 hPa | 0 mm | 2.68 m/s, 224° | - | - |
| 1788458960 | 24.44° C | 70% | 1018 hPa | 0 mm | 4.47 m/s, 197° | - | - |
| 1788458660 | 25° C | 70% | 1018 hPa | 0 mm | 4.02 m/s, 165° | - | - |
| 1788458360 | 25° C | 69% | 1017.6 hPa | 0 mm | 1.34 m/s, 198° | - | - |
| 1788458060 | 25.56° C | 69% | 1017.6 hPa | 0 mm | 0 m/s | - | - |
| 1788457760 | 25.56° C | 69% | 1017.6 hPa | 0 mm | 1.79 m/s, 260° | - | - |
| 1788457460 | 25.56° C | 68% | 1017.6 hPa | 0 mm | 1.79 m/s, 260° | - | - |
| 1788457160 | 25.56° C | 68% | 1017.6 hPa | 0 mm | 1.79 m/s, 270° | - | - |
| 1788456860 | 25.56° C | 68% | 1017.6 hPa | 0 mm | 0.45 m/s, 245° | - | - |
| 1788456560 | 26.11° C | 68% | 1017.6 hPa | 0 mm | 3.58 m/s, 251° | - | - |
* Rain latest hour (hover to see other rain measurements)
** Current wind speed in m/s (hover to see current wind gust speed)